Time,TemperatureF,DewpointF,PressureIn,WindDirection,WindDirectionDegrees,WindSpeedMPH,WindSpeedGustMPH,Humidity,HourlyPrecipIn,Conditions,Clouds,dailyrainin,SoftwareType,DateUTC
2013-03-08 00:00:00,30.1,25.6,30.15,NNE,23,2.0,12.0,83,0.00,,,0.00,Wunderground v.1.15,2013-03-08 06:00:00,
2013-03-08 00:10:00,31.4,25.9,30.15,NNE,14,3.0,3.0,80,0.00,,,0.00,Wunderground v.1.15,2013-03-08 06:10:00,
2013-03-08 00:20:00,29.9,25.7,30.15,NNE,25,2.0,12.0,84,0.00,,,0.00,Wunderground v.1.15,2013-03-08 06:20:00,
2013-03-08 00:30:00,31.8,26.3,30.15,NNE,29,3.0,12.0,80,0.00,,,0.00,Wunderground v.1.15,2013-03-08 06:30:00,
2013-03-08 00:40:00,33.3,27.2,30.15,NNE,33,3.0,12.0,78,0.00,,,0.00,Wunderground v.1.15,2013-03-08 06:40:00,
2013-03-08 00:50:00,33.3,26.9,30.15,NNE,27,3.0,3.0,77,0.00,,,0.00,Wunderground v.1.15,2013-03-08 06:50:00,
2013-03-08 01:00:00,31.2,26.0,30.15,North,8,3.0,12.0,81,0.00,,,0.00,Wunderground v.1.15,2013-03-08 07:00:00,
2013-03-08 01:10:00,31.0,25.6,30.15,NNE,20,4.0,4.0,80,0.00,,,0.00,Wunderground v.1.15,2013-03-08 07:10:00,
2013-03-08 01:20:00,31.8,26.9,30.15,NNE,28,4.0,12.0,82,0.00,,,0.00,Wunderground v.1.15,2013-03-08 07:20:00,
2013-03-08 01:30:00,32.5,27.3,30.15,NNE,32,5.0,12.0,81,0.00,,,0.00,Wunderground v.1.15,2013-03-08 07:30:00,
2013-03-08 01:40:00,33.0,27.5,30.15,NNE,27,5.0,12.0,80,0.00,,,0.00,Wunderground v.1.15,2013-03-08 07:40:00,
2013-03-08 01:50:00,33.3,27.8,30.14,NNE,30,5.0,12.0,80,0.00,,,0.00,Wunderground v.1.15,2013-03-08 07:50:00,
2013-03-08 02:00:00,33.1,27.3,30.14,NNE,19,6.0,6.0,79,0.00,,,0.00,Wunderground v.1.15,2013-03-08 08:00:00,
2013-03-08 02:10:00,32.4,26.9,30.15,NNE,19,4.0,12.0,80,0.00,,,0.00,Wunderground v.1.15,2013-03-08 08:10:00,
2013-03-08 02:20:00,32.5,27.0,30.14,NNE,20,4.0,12.0,80,0.00,,,0.00,Wunderground v.1.15,2013-03-08 08:20:00,
2013-03-08 02:30:00,31.7,26.5,30.14,NNE,23,4.0,12.0,81,0.00,,,0.00,Wunderground v.1.15,2013-03-08 08:30:00,
2013-03-08 02:40:00,32.3,27.1,30.13,NE,35,6.0,12.0,81,0.00,,,0.00,Wunderground v.1.15,2013-03-08 08:40:00,
2013-03-08 02:50:00,33.0,27.5,30.13,NNE,15,6.0,12.0,80,0.00,,,0.00,Wunderground v.1.15,2013-03-08 08:50:00,
2013-03-08 03:00:00,33.3,27.8,30.13,NNE,30,5.0,5.0,80,0.00,,,0.00,Wunderground v.1.15,2013-03-08 09:00:00,
2013-03-08 03:10:00,33.1,27.6,30.13,NNE,31,5.0,5.0,80,0.00,,,0.00,Wunderground v.1.15,2013-03-08 09:10:00,
2013-03-08 03:20:00,32.5,27.3,30.13,NE,42,6.0,6.0,81,0.00,,,0.00,Wunderground v.1.15,2013-03-08 09:20:00,
2013-03-08 03:30:00,32.0,27.1,30.12,NNE,32,5.0,6.0,82,0.00,,,0.00,Wunderground v.1.15,2013-03-08 09:30:00,
2013-03-08 03:40:00,31.3,26.4,30.11,NNE,18,6.0,6.0,82,0.00,,,0.00,Wunderground v.1.15,2013-03-08 09:40:00,
2013-03-08 03:50:00,31.3,27.0,30.11,NNE,33,5.0,8.0,84,0.00,,,0.00,Wunderground v.1.15,2013-03-08 09:50:00,
2013-03-08 04:00:00,31.0,26.7,30.10,NNE,33,6.0,8.0,84,0.00,,,0.00,Wunderground v.1.15,2013-03-08 10:00:00,
2013-03-08 04:10:00,31.0,26.7,30.10,NE,34,7.0,8.0,84,0.00,,,0.00,Wunderground v.1.15,2013-03-08 10:10:00,
2013-03-08 04:20:00,31.0,26.7,30.10,NE,38,7.0,7.0,84,0.00,,,0.00,Wunderground v.1.15,2013-03-08 10:20:00,
2013-03-08 04:30:00,31.0,26.7,30.10,NE,39,6.0,8.0,84,0.00,,,0.00,Wunderground v.1.15,2013-03-08 10:30:00,
2013-03-08 04:40:00,30.4,26.4,30.10,NE,49,4.0,4.0,85,0.00,,,0.00,Wunderground v.1.15,2013-03-08 10:40:00,
2013-03-08 04:50:00,30.8,27.1,30.10,NE,37,4.0,8.0,86,0.00,,,0.00,Wunderground v.1.15,2013-03-08 10:50:00,
2013-03-08 05:00:00,30.5,26.8,30.09,NE,34,7.0,8.0,86,0.00,,,0.00,Wunderground v.1.15,2013-03-08 11:00:00,
2013-03-08 05:10:00,30.3,26.6,30.08,NNE,25,10.0,10.0,86,0.00,,,0.00,Wunderground v.1.15,2013-03-08 11:10:00,
2013-03-08 05:20:00,30.5,27.1,30.09,NNE,26,9.0,9.0,87,0.00,,,0.00,Wunderground v.1.15,2013-03-08 11:20:00,
2013-03-08 05:30:00,30.2,26.8,30.08,NNE,30,6.0,8.0,87,0.00,,,0.00,Wunderground v.1.15,2013-03-08 11:30:00,
2013-03-08 05:40:00,30.0,26.9,30.08,ENE,60,6.0,10.0,88,0.00,,,0.00,Wunderground v.1.15,2013-03-08 11:40:00,
2013-03-08 05:50:00,30.0,26.6,30.08,NE,53,5.0,5.0,87,0.00,,,0.00,Wunderground v.1.15,2013-03-08 11:50:00,
2013-03-08 06:00:00,29.7,26.6,30.10,ESE,108,3.0,8.0,88,0.00,,,0.00,Wunderground v.1.15,2013-03-08 12:00:00,
2013-03-08 06:10:00,29.9,27.1,30.07,NE,54,6.0,9.0,89,0.00,,,0.00,Wunderground v.1.15,2013-03-08 12:10:00,
2013-03-08 06:20:00,29.9,26.8,30.10,ESE,114,6.0,6.0,88,0.00,,,0.00,Wunderground v.1.15,2013-03-08 12:20:00,
2013-03-08 06:30:00,29.3,26.2,30.09,NE,45,4.0,4.0,88,0.00,,,0.00,Wunderground v.1.15,2013-03-08 12:30:00,
2013-03-08 06:40:00,28.7,25.9,30.10,NE,40,2.0,8.0,89,0.00,,,0.00,Wunderground v.1.15,2013-03-08 12:40:00,
2013-03-08 06:50:00,28.1,25.8,30.10,NNE,30,2.0,8.0,91,0.00,,,0.00,Wunderground v.1.15,2013-03-08 12:50:00,
2013-03-08 07:00:00,27.7,25.2,30.10,NE,52,3.0,3.0,90,0.00,,,0.00,Wunderground v.1.15,2013-03-08 13:00:00,
2013-03-08 07:10:00,27.9,25.6,30.11,ENE,62,2.0,8.0,91,0.00,,,0.00,Wunderground v.1.15,2013-03-08 13:10:00,
2013-03-08 07:20:00,28.5,26.2,30.10,East,89,4.0,4.0,91,0.00,,,0.00,Wunderground v.1.15,2013-03-08 13:20:00,
2013-03-08 07:30:00,28.8,26.5,30.10,NNE,28,4.0,4.0,91,0.00,,,0.00,Wunderground v.1.15,2013-03-08 13:30:00,
2013-03-08 07:40:00,28.7,26.1,30.10,NNE,27,1.0,8.0,90,0.00,,,0.00,Wunderground v.1.15,2013-03-08 13:40:00,
2013-03-08 07:50:00,28.7,26.1,30.10,NE,39,3.0,8.0,90,0.00,,,0.00,Wunderground v.1.15,2013-03-08 13:50:00,
2013-03-08 08:00:00,28.9,26.6,30.11,NE,34,3.0,8.0,91,0.00,,,0.00,Wunderground v.1.15,2013-03-08 14:00:00,
2013-03-08 08:10:00,29.4,27.1,30.09,NNE,30,8.0,8.0,91,0.00,,,0.00,Wunderground v.1.15,2013-03-08 14:10:00,
2013-03-08 08:20:00,30.1,27.5,30.10,NE,55,5.0,8.0,90,0.00,,,0.00,Wunderground v.1.15,2013-03-08 14:20:00,
2013-03-08 08:30:00,30.5,27.9,30.08,NNE,21,7.0,10.0,90,0.00,,,0.00,Wunderground v.1.15,2013-03-08 14:30:00,
2013-03-08 08:40:00,30.8,28.2,30.08,NE,37,11.0,11.0,90,0.00,,,0.00,Wunderground v.1.15,2013-03-08 14:40:00,
2013-03-08 08:50:00,31.5,28.6,30.05,NNE,27,7.0,10.0,89,0.00,,,0.00,Wunderground v.1.15,2013-03-08 14:50:00,
2013-03-08 09:00:00,31.5,28.6,30.07,NNE,32,8.0,10.0,89,0.00,,,0.00,Wunderground v.1.15,2013-03-08 15:00:00,
2013-03-08 09:10:00,33.3,30.1,30.07,NE,47,8.0,8.0,88,0.00,,,0.00,Wunderground v.1.15,2013-03-08 15:10:00,
2013-03-08 09:20:00,33.9,29.6,30.07,NE,53,4.0,8.0,84,0.00,,,0.00,Wunderground v.1.15,2013-03-08 15:20:00,
2013-03-08 09:30:00,33.6,29.6,30.08,NE,39,5.0,8.0,85,0.00,,,0.00,Wunderground v.1.15,2013-03-08 15:30:00,
2013-03-08 09:40:00,33.7,29.7,30.07,NE,55,6.0,6.0,85,0.00,,,0.00,Wunderground v.1.15,2013-03-08 15:40:00,
2013-03-08 09:50:00,34.5,30.2,30.07,ENE,63,4.0,8.0,84,0.00,,,0.00,Wunderground v.1.15,2013-03-08 15:50:00,
2013-03-08 10:00:00,35.4,30.1,30.07,ENE,65,6.0,6.0,81,0.00,,,0.00,Wunderground v.1.15,2013-03-08 16:00:00,
2013-03-08 10:10:00,36.4,30.2,30.08,East,94,4.0,8.0,78,0.00,,,0.00,Wunderground v.1.15,2013-03-08 16:10:00,
2013-03-08 10:20:00,37.5,31.3,30.07,East,101,4.0,8.0,78,0.00,,,0.00,Wunderground v.1.15,2013-03-08 16:20:00,
2013-03-08 10:30:00,39.0,31.7,30.07,NE,43,4.0,4.0,75,0.00,,,0.00,Wunderground v.1.15,2013-03-08 16:30:00,
2013-03-08 10:40:00,39.7,31.1,30.07,East,96,5.0,8.0,71,0.00,,,0.00,Wunderground v.1.15,2013-03-08 16:40:00,
2013-03-08 10:50:00,38.7,30.8,30.06,East,79,6.0,6.0,73,0.00,,,0.00,Wunderground v.1.15,2013-03-08 16:50:00,
2013-03-08 11:00:00,39.3,31.4,30.06,ENE,58,6.0,6.0,73,0.00,,,0.00,Wunderground v.1.15,2013-03-08 17:00:00,
2013-03-08 11:10:00,40.8,31.8,30.05,ENE,68,5.0,5.0,70,0.00,,,0.00,Wunderground v.1.15,2013-03-08 17:10:00,
2013-03-08 11:20:00,41.6,32.2,30.05,NE,56,4.0,8.0,69,0.00,,,0.00,Wunderground v.1.15,2013-03-08 17:20:00,
2013-03-08 11:30:00,41.4,31.6,30.04,ENE,73,6.0,8.0,68,0.00,,,0.00,Wunderground v.1.15,2013-03-08 17:30:00,
2013-03-08 11:40:00,41.4,31.6,30.05,North,5,4.0,4.0,68,0.00,,,0.00,Wunderground v.1.15,2013-03-08 17:40:00,
2013-03-08 11:50:00,41.5,31.4,30.04,ENE,68,5.0,5.0,67,0.00,,,0.00,Wunderground v.1.15,2013-03-08 17:50:00,
2013-03-08 12:00:00,41.9,31.7,30.03,ENE,65,5.0,8.0,67,0.00,,,0.00,Wunderground v.1.15,2013-03-08 18:00:00,
2013-03-08 12:10:00,43.0,32.0,30.03,ENE,77,6.0,6.0,65,0.00,,,0.00,Wunderground v.1.15,2013-03-08 18:10:00,
2013-03-08 12:20:00,43.9,32.5,30.04,East,83,7.0,7.0,64,0.00,,,0.00,Wunderground v.1.15,2013-03-08 18:20:00,
2013-03-08 12:30:00,45.6,32.9,30.04,East,89,7.0,8.0,61,0.00,,,0.00,Wunderground v.1.15,2013-03-08 18:30:00,
2013-03-08 12:40:00,46.8,33.2,30.03,South,182,10.0,10.0,59,0.00,,,0.00,Wunderground v.1.15,2013-03-08 18:40:00,
2013-03-08 12:50:00,46.4,33.3,30.02,ESE,113,11.0,11.0,60,0.00,,,0.00,Wunderground v.1.15,2013-03-08 18:50:00,
2013-03-08 13:00:00,46.8,34.0,30.00,ESE,123,11.0,11.0,61,0.00,,,0.00,Wunderground v.1.15,2013-03-08 19:00:00,
2013-03-08 13:10:00,47.5,34.7,29.98,East,92,9.0,9.0,61,0.00,,,0.00,Wunderground v.1.15,2013-03-08 19:10:00,
2013-03-08 13:20:00,48.4,35.6,29.97,ENE,78,8.0,10.0,61,0.00,,,0.00,Wunderground v.1.15,2013-03-08 19:20:00,
2013-03-08 13:30:00,48.2,35.8,29.96,East,91,9.0,11.0,62,0.00,,,0.00,Wunderground v.1.15,2013-03-08 19:30:00,
2013-03-08 13:40:00,48.7,35.8,29.95,ENE,61,8.0,8.0,61,0.00,,,0.00,Wunderground v.1.15,2013-03-08 19:40:00,
2013-03-08 13:50:00,48.9,36.0,29.95,SSE,166,8.0,8.0,61,0.00,,,0.00,Wunderground v.1.15,2013-03-08 19:50:00,
2013-03-08 14:00:00,49.5,36.2,29.95,SSE,158,7.0,8.0,60,0.00,,,0.00,Wunderground v.1.15,2013-03-08 20:00:00,
2013-03-08 14:10:00,49.1,36.2,29.94,SE,145,8.0,8.0,61,0.00,,,0.00,Wunderground v.1.15,2013-03-08 20:10:00,
2013-03-08 14:20:00,49.6,36.7,29.94,ESE,108,9.0,9.0,61,0.00,,,0.00,Wunderground v.1.15,2013-03-08 20:20:00,
2013-03-08 14:30:00,50.0,36.2,29.93,SE,146,8.0,14.0,59,0.00,,,0.00,Wunderground v.1.15,2013-03-08 20:30:00,
2013-03-08 14:40:00,49.5,36.2,29.92,ESE,122,9.0,11.0,60,0.00,,,0.00,Wunderground v.1.15,2013-03-08 20:40:00,
2013-03-08 14:50:00,49.7,36.4,29.93,ESE,105,11.0,11.0,60,0.00,,,0.00,Wunderground v.1.15,2013-03-08 20:50:00,
2013-03-08 15:00:00,49.7,36.4,29.93,SE,127,11.0,11.0,60,0.00,,,0.00,Wunderground v.1.15,2013-03-08 21:00:00,
2013-03-08 15:10:00,49.6,35.8,29.93,ENE,77,9.0,13.0,59,0.00,,,0.00,Wunderground v.1.15,2013-03-08 21:10:00,
2013-03-08 15:20:00,49.8,36.5,29.93,East,92,10.0,16.0,60,0.00,,,0.00,Wunderground v.1.15,2013-03-08 21:20:00,
2013-03-08 15:30:00,49.2,36.3,29.93,SE,131,14.0,14.0,61,0.00,,,0.00,Wunderground v.1.15,2013-03-08 21:30:00,
2013-03-08 15:40:00,49.1,36.6,29.93,ESE,118,12.0,13.0,62,0.00,,,0.00,Wunderground v.1.15,2013-03-08 21:40:00,
2013-03-08 15:50:00,49.0,37.3,29.92,ESE,102,11.0,11.0,64,0.00,,,0.00,Wunderground v.1.15,2013-03-08 21:50:00,
2013-03-08 16:00:00,48.7,37.8,29.92,ESE,120,10.0,13.0,66,0.00,,,0.00,Wunderground v.1.15,2013-03-08 22:00:00,
2013-03-08 16:10:00,48.6,37.7,29.91,ESE,109,10.0,10.0,66,0.00,,,0.00,Wunderground v.1.15,2013-03-08 22:10:00,
2013-03-08 16:20:00,48.8,37.9,29.91,ENE,70,8.0,15.0,66,0.00,,,0.00,Wunderground v.1.15,2013-03-08 22:20:00,
2013-03-08 16:30:00,48.7,38.2,29.91,East,101,9.0,9.0,67,0.00,,,0.00,Wunderground v.1.15,2013-03-08 22:30:00,
2013-03-08 16:40:00,48.6,38.5,29.91,ENE,63,10.0,10.0,68,0.00,,,0.00,Wunderground v.1.15,2013-03-08 22:40:00,
2013-03-08 16:50:00,48.9,38.4,29.89,SE,130,8.0,10.0,67,0.00,,,0.00,Wunderground v.1.15,2013-03-08 22:50:00,
2013-03-08 17:00:00,49.2,37.9,29.88,ENE,65,9.0,9.0,65,0.00,,,0.00,Wunderground v.1.15,2013-03-08 23:00:00,
2013-03-08 17:10:00,49.3,38.4,29.88,ESE,120,8.0,11.0,66,0.00,,,0.00,Wunderground v.1.15,2013-03-08 23:10:00,
2013-03-08 17:20:00,48.9,38.4,29.87,ENE,66,8.0,8.0,67,0.00,,,0.00,Wunderground v.1.15,2013-03-08 23:20:00,
2013-03-08 17:30:00,48.5,38.4,29.87,East,89,7.0,8.0,68,0.00,,,0.00,Wunderground v.1.15,2013-03-08 23:30:00,
2013-03-08 17:40:00,47.9,37.8,29.87,East,92,7.0,7.0,68,0.00,,,0.00,Wunderground v.1.15,2013-03-08 23:40:00,
2013-03-08 17:50:00,47.6,37.9,29.88,East,88,6.0,9.0,69,0.00,,,0.00,Wunderground v.1.15,2013-03-08 23:50:00,
2013-03-08 18:00:00,47.4,37.7,29.88,ESE,103,6.0,6.0,69,0.00,,,0.00,Wunderground v.1.15,2013-03-09 00:00:00,
2013-03-08 18:10:00,47.2,37.5,29.89,ENE,75,5.0,5.0,69,0.00,,,0.00,Wunderground v.1.15,2013-03-09 00:10:00,
2013-03-08 18:20:00,47.0,37.7,29.89,ENE,65,5.0,5.0,70,0.00,,,0.00,Wunderground v.1.15,2013-03-09 00:20:00,
2013-03-08 18:30:00,46.6,37.3,29.88,ENE,70,5.0,7.0,70,0.00,,,0.00,Wunderground v.1.15,2013-03-09 00:30:00,
2013-03-08 18:40:00,46.3,37.4,29.87,NE,53,6.0,6.0,71,0.00,,,0.00,Wunderground v.1.15,2013-03-09 00:40:00,
2013-03-08 18:50:00,46.0,37.5,29.87,ENE,60,5.0,5.0,72,0.00,,,0.00,Wunderground v.1.15,2013-03-09 00:50:00,
2013-03-08 19:00:00,45.9,37.4,29.87,ENE,59,3.0,3.0,72,0.00,,,0.00,Wunderground v.1.15,2013-03-09 01:00:00,
2013-03-08 19:10:00,46.0,37.5,29.87,NNE,21,5.0,13.0,72,0.00,,,0.00,Wunderground v.1.15,2013-03-09 01:10:00,
2013-03-08 19:20:00,46.1,37.9,29.86,ESE,103,6.0,6.0,73,0.00,,,0.00,Wunderground v.1.15,2013-03-09 01:20:00,
2013-03-08 19:30:00,45.9,37.7,29.87,NE,48,6.0,6.0,73,0.00,,,0.00,Wunderground v.1.15,2013-03-09 01:30:00,
2013-03-08 19:40:00,45.9,37.7,29.87,ENE,61,6.0,13.0,73,0.00,,,0.00,Wunderground v.1.15,2013-03-09 01:40:00,
2013-03-08 19:50:00,45.8,37.6,29.86,ENE,58,5.0,5.0,73,0.00,,,0.00,Wunderground v.1.15,2013-03-09 01:50:00,
2013-03-08 20:00:00,45.8,38.0,29.86,NE,34,5.0,13.0,74,0.00,,,0.00,Wunderground v.1.15,2013-03-09 02:00:00,
2013-03-08 20:10:00,45.7,37.9,29.86,NE,36,5.0,13.0,74,0.00,,,0.00,Wunderground v.1.15,2013-03-09 02:10:00,
2013-03-08 20:20:00,46.5,38.7,29.85,ENE,70,6.0,6.0,74,0.00,,,0.00,Wunderground v.1.15,2013-03-09 02:20:00,
2013-03-08 20:30:00,46.6,38.8,29.85,NE,42,4.0,4.0,74,0.00,,,0.00,Wunderground v.1.15,2013-03-09 02:30:00,
2013-03-08 20:40:00,47.1,40.3,29.86,ENE,69,2.0,13.0,77,0.00,,,0.00,Wunderground v.1.15,2013-03-09 02:40:00,
2013-03-08 20:50:00,48.0,40.8,29.85,ENE,58,4.0,13.0,76,0.00,,,0.00,Wunderground v.1.15,2013-03-09 02:50:00,
2013-03-08 21:00:00,48.0,41.1,29.85,ENE,67,3.0,3.0,77,0.00,,,0.00,Wunderground v.1.15,2013-03-09 03:00:00,
2013-03-08 21:10:00,48.3,41.8,29.84,East,84,2.0,2.0,78,0.00,,,0.00,Wunderground v.1.15,2013-03-09 03:10:00,
2013-03-08 21:20:00,48.3,42.4,29.84,SE,126,2.0,13.0,80,0.00,,,0.00,Wunderground v.1.15,2013-03-09 03:20:00,
2013-03-08 21:30:00,48.9,44.0,29.83,ESE,119,5.0,13.0,83,0.00,,,0.00,Wunderground v.1.15,2013-03-09 03:30:00,
2013-03-08 21:40:00,50.0,45.7,29.83,ESE,122,9.0,13.0,85,0.00,,,0.00,Wunderground v.1.15,2013-03-09 03:40:00,
2013-03-08 21:50:00,50.5,46.5,29.83,ESE,104,11.0,11.0,86,0.00,,,0.00,Wunderground v.1.15,2013-03-09 03:50:00,
2013-03-08 22:00:00,50.5,46.5,29.82,ESE,123,11.0,13.0,86,0.00,,,0.00,Wunderground v.1.15,2013-03-09 04:00:00,
2013-03-08 22:10:00,50.4,46.7,29.82,SE,146,11.0,13.0,87,0.00,,,0.00,Wunderground v.1.15,2013-03-09 04:10:00,
2013-03-08 22:20:00,50.3,46.6,29.82,ESE,115,10.0,13.0,87,0.00,,,0.00,Wunderground v.1.15,2013-03-09 04:20:00,
2013-03-08 22:30:00,50.1,46.7,29.82,SSE,150,10.0,13.0,88,0.00,,,0.00,Wunderground v.1.15,2013-03-09 04:30:00,
2013-03-08 22:40:00,50.0,46.9,29.81,SE,131,10.0,13.0,89,0.00,,,0.00,Wunderground v.1.15,2013-03-09 04:40:00,
2013-03-08 22:50:00,49.9,47.1,29.80,SE,146,11.0,15.0,90,0.00,,,0.00,Wunderground v.1.15,2013-03-09 04:50:00,
2013-03-08 23:00:00,49.7,47.2,29.79,SE,135,11.0,13.0,91,0.00,,,0.00,Wunderground v.1.15,2013-03-09 05:00:00,
2013-03-08 23:10:00,49.7,47.2,29.79,SSE,153,13.0,13.0,91,0.00,,,0.00,Wunderground v.1.15,2013-03-09 05:10:00,
2013-03-08 23:20:00,49.5,47.3,29.79,SSE,149,13.0,13.0,92,0.00,,,0.00,Wunderground v.1.15,2013-03-09 05:20:00,
2013-03-08 23:30:00,49.6,47.4,29.78,SSE,162,13.0,13.0,92,0.00,,,0.00,Wunderground v.1.15,2013-03-09 05:30:00,
2013-03-08 23:40:00,49.6,47.7,29.78,SSE,160,13.0,13.0,93,0.00,,,0.00,Wunderground v.1.15,2013-03-09 05:40:00,
2013-03-08 23:50:00,49.8,47.9,29.77,SE,143,14.0,14.0,93,0.00,,,0.00,Wunderground v.1.15,2013-03-09 05:50:00,